Regional Weather Roundup
Issued by NWS

Home | Current Version | Previous Version | Graphics & Text | Print | Product List | Glossary On
Versions: 1 2 3 4 5 6 7 8 9 10 11 12 13 14 15 16 17 18 19 20 21 22 23 24 25 26 27 28 29 30 31 32 33 34 35 36 37 38 39 40 41 42 43 44 45 46 47 48 49 50
000
ASUS43 KFSD 282210
RWRSD

WEATHER ROUNDUP FOR SOUTH DAKOTA
NATIONAL WEATHER SERVICE SIOUX FALLS SD
500 PM CDT SUN MAY 28 2017

NOTE: "FAIR" INDICATES FEW OR NO CLOUDS BELOW 12,000 FEET WITH NO
SIGNIFICANT WEATHER AND/OR OBSTRUCTIONS TO VISIBILITY.


SDZ001>005-009-010-012>017-282300-
NORTHWEST AND NORTH CENTRAL SOUTH DAKOTA

CITY           SKY/WX    TMP DP  RH WIND       PRES   REMARKS
BUFFALO          N/A     75  37  25 NW25G41   29.92F
FAITH            N/A     72  40  31 W25G36    29.95F
MOBRIDGE       MOSUNNY   74  37  26 NW21G28   29.82F
$$

SDZ012>016-024>037-041>051-057-063-072>074-282300-
SOUTHWEST AND SOUTH CENTRAL SOUTH DAKOTA

CITY           SKY/WX    TMP DP  RH WIND       PRES   REMARKS
RAPID CTY ARPT PTSUNNY   73  38  27 NW35G51   30.04R
PIERRE         CLOUDY    67  42  40 NW24G33   29.94R
CUSTER         CLOUDY    59  37  44 NW9       30.14S
ELLSWORTH AFB  TSTM      59  50  72 N38G53    30.05
PHILIP         TSTM      58  51  78 N28G54    29.97R
PINE RIDGE     CLOUDY    65  46  50 SW6       30.07F
SPEARFISH      RAIN      57  46  67 N14G29    30.12R
WINNER         FAIR      74  37  26 NW14      29.94F
$$

SDZ004>011-016>023-039-040-282300-
NORTHEAST SOUTH DAKOTA

CITY           SKY/WX    TMP DP  RH WIND       PRES   REMARKS
ABERDEEN       CLOUDY    64  47  53 N15       29.84R
WATERTOWN      MOSUNNY   67  44  43 NW20      29.83S
BROOKINGS      MOSUNNY   70  41  34 NW17G26   29.84S
SISSETON         N/A     57  50  77 N26G43    29.83R
$$

SDZ017-020-022-023-036>040-048>070-282300-
SOUTHEAST SOUTH DAKOTA

CITY           SKY/WX    TMP DP  RH WIND       PRES   REMARKS
SIOUX FALLS    MOSUNNY   74  43  32 NW21G26   29.86F
HURON          PTSUNNY   73  37  27 NW24G32   29.83F
CHAMBERLAIN    MOSUNNY   80  36  21 W17G30    29.90F
MITCHELL       MOSUNNY   79  36  21 NW22      29.87F
YANKTON        SUNNY     72  42  34 NW14      29.90
$$

ABBREVIATIONS USED IN REMARKS
   TC - TEMPERATURE IN CELSIUS
  WCI - WIND CHILL INDEX
   HX - HEAT INDEX
  VSB - VISIBILITY





USA.gov is the U.S. government's official web portal to all federal, state and local government web resources and services.